Silvana, WA

3:57 PM PDT on July 29, 2016 (GMT -0700)
Arlington Municipal

Weather History for KAWO - October, 2011

Change the Weather History Date:

Monday, October 10, 2011

  Actual Average Record
Temperature  
Mean Temperature 54 °F -  
Max Temperature 60 °F 62 °F 67 °F (1976)
Min Temperature 48 °F 40 °F 30 °F (2008)
Degree Days  
Heating Degree Days 11    
Growing Degree Days 4 (Base 50)    
Moisture  
Dew Point 48 °F    
Average Humidity 81    
Maximum Humidity 93    
Minimum Humidity 68    
Precipitation  
Precipitation 0.01 in - - ()
Sea Level Pressure  
Sea Level Pressure 29.62 in    
Wind  
Wind Speed 5 mph (SSE)    
Max Wind Speed 24 mph    
Max Gust Speed 31 mph    
Visibility 10 miles    
Events      
Averages and records for this station are not official NWS values.
T = Trace of Precipitation, MM = Missing Value Source: NWS Daily Summary

Daily Weather History Graph

Daily Weather History Graph

Search for Another Location

Airport or City:

Trip Planner

Search our weather history database for the weather conditions in past years. The results will help you decide how hot, cold, wet, or windy it might be!

Date:

Astronomy

Oct. 10, 2011 Rise Set
Actual Time 7:20 AM PDT 6:29 PM PDT
Civil Twilight 6:49 AM PDT 7:01 PM PDT
Nautical Twilight 6:13 AM PDT 7:36 PM PDT
Astronomical Twilight 5:37 AM PDT 8:13 PM PDT
Moon 5:35 PM PDT (10/10) 6:05 AM PDT (10/10)
Length of Visible Light 12h 11m
Length of Day
11h 09m
Waxing Gibbous, 98% of the Moon is Illuminated
Oct 10
Waxing Gibbous
Oct 11
Full
Oct 19
Last Quarter
Oct 26
New
Nov 2
First Quarter

Hourly Weather History & Observations

Time (PDT) Temp. Dew Point Humidity Pressure Visibility Wind Dir Wind Speed Gust Speed Precip Events Conditions
12:15 AM 48.2 °F 44.6 °F 87% 29.83 in 10.0 mi Calm Calm - N/A   Partly Cloudy
12:35 AM 48.2 °F 44.6 °F 87% 29.82 in 10.0 mi Calm Calm - N/A   Mostly Cloudy
12:55 AM 48.2 °F 44.6 °F 87% 29.81 in 10.0 mi Calm Calm - N/A   Overcast
1:35 AM 48.2 °F 44.6 °F 87% 29.79 in 10.0 mi Calm Calm - N/A   Scattered Clouds
1:55 AM 48.2 °F 44.6 °F 87% 29.78 in 10.0 mi Calm Calm - N/A   Partly Cloudy
2:15 AM 48.2 °F 44.6 °F 87% 29.77 in 10.0 mi Calm Calm - N/A   Mostly Cloudy
2:35 AM 48.2 °F 44.6 °F 87% 29.76 in 10.0 mi Calm Calm - N/A   Mostly Cloudy
2:55 AM 48.2 °F 44.6 °F 87% 29.76 in 10.0 mi Calm Calm - N/A   Partly Cloudy
3:15 AM 48.2 °F 44.6 °F 87% 29.74 in 10.0 mi Calm Calm - N/A   Partly Cloudy
3:35 AM 48.2 °F 44.6 °F 87% 29.73 in 10.0 mi Calm Calm - N/A   Scattered Clouds
3:55 AM 48.2 °F 44.6 °F 87% 29.71 in 10.0 mi Calm Calm - N/A   Overcast
4:15 AM 48.2 °F 44.6 °F 87% 29.70 in 10.0 mi Calm Calm - N/A   Overcast
4:35 AM 48.2 °F 44.6 °F 87% 29.69 in 10.0 mi Calm Calm - N/A   Overcast
4:55 AM 48.2 °F 44.6 °F 87% 29.68 in 10.0 mi Calm Calm - N/A   Overcast
5:15 AM 48.2 °F 44.6 °F 87% 29.68 in 10.0 mi Calm Calm - N/A   Overcast
5:35 AM 48.2 °F 46.4 °F 93% 29.67 in 10.0 mi Calm Calm - N/A   Overcast
6:15 AM 50.0 °F 46.4 °F 87% 29.66 in 10.0 mi Calm Calm - N/A   Mostly Cloudy
6:35 AM 50.0 °F 46.4 °F 87% 29.65 in 10.0 mi Calm Calm - N/A   Overcast
6:55 AM 48.2 °F 46.4 °F 93% 29.65 in 10.0 mi Calm Calm - N/A   Overcast
7:15 AM 48.2 °F 46.4 °F 93% 29.66 in 9.0 mi Calm Calm - N/A   Mostly Cloudy
7:35 AM 50.0 °F 46.4 °F 87% 29.64 in 10.0 mi Calm Calm - N/A   Mostly Cloudy
7:55 AM 51.8 °F 46.4 °F 82% 29.64 in 9.0 mi Calm Calm - 0.01 in   Overcast
8:35 AM 51.8 °F 48.2 °F 88% 29.63 in 9.0 mi Calm Calm - N/A   Overcast
8:55 AM 53.6 °F 48.2 °F 82% 29.62 in 10.0 mi East 6.9 mph - N/A   Overcast
9:35 AM 53.6 °F 46.4 °F 77% 29.60 in 10.0 mi Calm Calm - N/A   Overcast
9:55 AM 53.6 °F 46.4 °F 77% 29.59 in 10.0 mi ESE 9.2 mph - N/A   Overcast
10:15 AM 53.6 °F 46.4 °F 77% 29.58 in 10.0 mi ESE 9.2 mph - N/A   Overcast
10:35 AM 53.6 °F 46.4 °F 77% 29.56 in 10.0 mi ESE 6.9 mph - N/A   Overcast
11:15 AM 55.4 °F 48.2 °F 77% 29.55 in 10.0 mi ESE 4.6 mph - N/A   Overcast
11:35 AM 55.4 °F 48.2 °F 77% 29.54 in 10.0 mi Calm Calm - N/A   Overcast
11:55 AM 57.2 °F 50.0 °F 77% 29.54 in 10.0 mi South 5.8 mph - N/A   Overcast
12:15 PM 57.2 °F 50.0 °F 77% 29.54 in 10.0 mi SSE 8.1 mph - N/A   Overcast
12:35 PM 57.2 °F 51.8 °F 82% 29.54 in 10.0 mi SSE 10.4 mph - N/A   Overcast
1:15 PM 57.2 °F 51.8 °F 82% 29.53 in 10.0 mi SSE 15.0 mph - N/A   Overcast
1:55 PM 57.2 °F 50.0 °F 77% 29.53 in 10.0 mi SSE 10.4 mph - N/A   Overcast
2:15 PM 57.2 °F 50.0 °F 77% 29.52 in 10.0 mi SE 13.8 mph - N/A   Overcast
2:35 PM 57.2 °F 51.8 °F 82% 29.51 in 10.0 mi SE 11.5 mph - N/A   Overcast
2:55 PM 57.2 °F 51.8 °F 82% 29.52 in 10.0 mi SSE 12.7 mph - N/A   Overcast
3:15 PM 59.0 °F 51.8 °F 77% 29.51 in 10.0 mi SSE 21.9 mph - N/A   Mostly Cloudy
3:35 PM 60.8 °F 51.8 °F 72% 29.50 in 10.0 mi SE 24.2 mph 31.1 mph N/A   Partly Cloudy
3:55 PM 60.8 °F 53.6 °F 77% 29.52 in 10.0 mi South 12.7 mph - N/A   Mostly Cloudy
4:15 PM 60.8 °F 53.6 °F 77% 29.52 in 10.0 mi South 17.3 mph 26.5 mph N/A   Overcast
4:35 PM 60.8 °F 51.8 °F 72% 29.53 in 10.0 mi South 18.4 mph 24.2 mph N/A   Overcast
5:15 PM 60.8 °F 50.0 °F 68% 29.54 in 10.0 mi South 16.1 mph 24.2 mph N/A   Mostly Cloudy
5:55 PM 59.0 °F 50.0 °F 72% 29.54 in 10.0 mi South 12.7 mph - N/A   Overcast
6:15 PM 57.2 °F 50.0 °F 77% 29.56 in 10.0 mi South 10.4 mph 17.3 mph N/A   Mostly Cloudy
6:35 PM 57.2 °F 50.0 °F 77% 29.56 in 10.0 mi SSE 16.1 mph 23.0 mph N/A   Overcast
6:55 PM 57.2 °F 50.0 °F 77% 29.56 in 10.0 mi SSE 20.7 mph 25.3 mph N/A   Overcast
7:15 PM 57.2 °F 48.2 °F 72% 29.57 in 10.0 mi SSE 17.3 mph 26.5 mph N/A   Overcast
7:35 PM 57.2 °F 48.2 °F 72% 29.58 in 10.0 mi South 19.6 mph 26.5 mph N/A   Overcast
7:55 PM 57.2 °F 48.2 °F 72% 29.57 in 10.0 mi South 19.6 mph 28.8 mph N/A   Overcast
8:35 PM 57.2 °F 48.2 °F 72% 29.58 in 10.0 mi SSE 16.1 mph - N/A   Overcast
8:55 PM 57.2 °F 48.2 °F 72% 29.58 in 10.0 mi SSE 17.3 mph 26.5 mph N/A   Overcast
9:15 PM 57.2 °F 48.2 °F 72% 29.58 in 10.0 mi SSE 18.4 mph 26.5 mph N/A   Mostly Cloudy
9:35 PM 57.2 °F 48.2 °F 72% 29.58 in 10.0 mi SSE 19.6 mph - N/A   Overcast
9:55 PM 57.2 °F 48.2 °F 72% 29.58 in 10.0 mi SSE 20.7 mph 29.9 mph N/A   Overcast
10:35 PM 55.4 °F 48.2 °F 77% 29.57 in 10.0 mi SSE 18.4 mph 25.3 mph N/A   Overcast
10:55 PM 55.4 °F 48.2 °F 77% 29.57 in 10.0 mi SSE 18.4 mph 21.9 mph N/A   Overcast
11:15 PM 55.4 °F 48.2 °F 77% 29.57 in 10.0 mi SE 16.1 mph 23.0 mph N/A   Overcast
11:35 PM 55.4 °F 48.2 °F 77% 29.56 in 10.0 mi SE 19.6 mph 31.1 mph N/A   Overcast
11:55 PM 55.4 °F 48.2 °F 77% 29.56 in 10.0 mi SE 17.3 mph 24.2 mph N/A   Overcast